Regional Weather Roundup
Issued by NWS

Home | Current Version | Previous Version | Text Only | Print | Product List | Glossary Off
Versions: 1 2 3 4 5 6 7 8 9 10 11 12 13 14 15 16 17 18 19 20 21 22 23 24 25 26 27

000
ASUS45 KSLC 290810
RWRUT

UTAH REGIONAL WEATHER ROUNDUP
NATIONAL WEATHER SERVICE SALT LAKE CITY UT
200 AM MDT THU SEP 29 2016

UTZ001>011-023>025-290900-

NORTHERN UTAH

CITY           SKY/WX    TMP DP  RH WIND       PRES   REMARKS
BRIGHAM CITY     N/A     60  50  69 SE3       30.18F
HILL AFB       NOT AVBL
LOGAN          PTCLDY    55  50  83 E7        30.20S
OGDEN          MOCLDY    60  52  74 SE7       30.18F
PROVO AIRPORT  CLOUDY    60  52  74 SE3       30.22S
SALT LAKE CITY PTCLDY    64  52  64 S7        30.18F
VERNAL         CLOUDY    60  47  61 SE5       30.31R
WENDOVER       PTCLDY    63  46  55 NE8       30.16F
HEBER CITY     CLOUDY    54  46  76 CALM      30.26S
WEST JORDAN    MOCLDY    60  49  68 CALM      30.21F

$$

UTZ012>022-026-027-290900-

SOUTHERN/CENTRAL UTAH

CITY           SKY/WX    TMP DP  RH WIND       PRES   REMARKS
BLANDING       CLOUDY    60  50  70 NE3       30.43R
BRYCE CANYON   LGT RAIN  49  47  93 SW5       30.44R FOG
CEDAR CITY     PTCLDY    61  44  53 SE13      30.26S
DELTA          PTCLDY    59  45  58 SE5       30.22R
MILFORD        PTCLDY    54  45  71 SE7       30.23S
MOAB/CYNLANDS  MOCLDY    65  45  48 CALM      30.24R
PRICE          MOCLDY    63  41  44 E5        30.31S
ST GEORGE      CLOUDY    68  50  52 E10       30.17S

$$

REGIONAL REPORTS     COLORADO/ARIZONA

CITY           SKY/WX    TMP DP  RH WIND       PRES   REMARKS
CRAIG, CO      CLOUDY    44  37  76 SW5       30.34R
GRAND JUNCTION CLOUDY    67  40  37 N3        30.26R
RIFLE          CLOUDY    56  42  59 CALM      30.31R
MONTROSE       MOCLDY    61  41  47 S6        30.34F
CORTEZ         CLOUDY    57  48  72 NE7       30.37S
PAGE, AZ       CLOUDY    64  58  80 CALM      30.28R
GRAND CANYON   CLOUDY    54  51  90 CALM      30.37S
KINGMAN        PTCLDY    63  46  54 SE3       30.15R
FLAGSTAFF      CLOUDY    50  50 100 CALM      30.39S

$$

REGIONAL REPORTS    NEVADA/IDAHO/WYOMING

CITY           SKY/WX    TMP DP  RH WIND       PRES   REMARKS
LAS VEGAS, NV  PTCLDY    75  47  36 SW5       30.06S
ELY            MOCLDY    55  41  59 S9        30.26S
ELKO           MOCLDY    66  38  35 S9        30.14S
POCATELLO, ID  MOCLDY    70  41  34 SE10      30.14F
BURLEY         PTCLDY    65  48  54 SE7       30.09S
EVANSTON, WY   CLOUDY    55  39  54 S6        30.35S
ROCK SPRINGS   CLOUDY    56  38  50 S5        30.34S

$$




USA.gov is the U.S. government's official web portal to all federal, state and local government web resources and services.